Погода в Верховье

Россия / Орловская область     52°49′21″N   37°16′04″E
темп.,
°C
ветер,
м/с
пор.,
м/с
влажн.,
%
обл.,
%
осадки,
мм/ч
давл.,
гПа
погр.,
м
12 апреля, пн
пн1200:00+6св41266100 0.0 1030261
03:00+5св51369100 0.0 1030286
06:00+5всв61475100 0.1 1029379
09:00+7в61083100 0.4 1028392
12:00+12в6973100 0.0 1027513
15:00+17в71059100 0.0 1025838
18:00+16в5105995 0.0 1024314
21:00+13вюв515636 0.0 1024297
13 апреля, вт
вт1300:00+11вюв513728 0.0 1024224
03:00+9юв41079100 0.0 1025161
06:00+8вюв487956 0.0 1025120
09:00+13юв5106056 0.0 1025318
12:00+18юв694414 0.0 10241070
15:00+20юв7103471 0.0 10231745
18:00+18юв611372 0.0 1022435
21:00+13вюв412545 0.0 1022233
14 апреля, ср
ср1400:00+11юв3863100 0.0 1022134
03:00+10юв4106797 0.0 1022190
06:00+8вюв477132 0.0 1021111
09:00+13юв595369 0.0 1021387
12:00+17юв793797 0.0 10191043
15:00+19ююв7827100 0.0 10181886
18:00+17юв4736100 0.0 1017220
21:00+14юв3647100 0.0 1018105
15 апреля, чт
чт1500:00+12зсз237489 0.0 101732
03:00+10ссв3383100 0.0 101840
06:00+9св3377100 0.0 101734
09:00+13вюв3453100 0.0 1017224
12:00+17вюв4540100 0.0 1016859
15:00+19вюв4532100 0.0 10142353
18:00+17в3541100 0.0 1013116
21:00+14вюв3555100 0.0 101369
16 апреля, пт
пт1600:00+13в3558100 0.0 101279
03:00+11вюв3362100 0.0 101248
06:00+11вюв4878100 0.2 1012233
09:00+11вюв358099 0.2 1013241
12:00+15вюв456096 0.7 10131198
15:00+14в2365100 2.1 1013312
18:00+12всв5785100 1.9 1014375
21:00+10всв4794100 4.8 1015335